Home > Weather > Netanya > Past weeks

Flag for Israel Past Weather in Netanya, Israel — Yesterday and Last 2 Weeks

Now
81 °F

Passing clouds.


Feels Like: 84 °F
Forecast: 82 / 86 °F
Wind: 6 mph from West

Location: Dov Airport

Current Time: Aug 24, 2016 at 7:22:21 AM

Latest Report: Aug 24, 2016 at 6:50 AM


Visibility: N/A

Pressure: 29.77 "Hg

Humidity: 70%

Dew Point: 70 °F

Location of NetanyaLocation

Past Weather in Netanya — Graph

°F

Netanya Temperature Yesterday

Maximum temperature yesterday: 88 °F (at 12:50 PM)
Minimum temperature yesterday: 81 °F (at 5:50 AM)
Average temperature yesterday: 84 °F

High & Low Weather Summary for the Past Weeks

 TemperatureHumidityPressure
High90 °F (Aug 9, 11:50 AM)84% (Aug 9, 6:50 AM)29.86 "Hg (Aug 9, 6:50 AM)
Low77 °F (Aug 13, 6:00 AM)52% (Aug 16, 10:50 AM)29.71 "Hg (Aug 9, 2:50 PM)
Average84 °F67%29.79 "Hg
* Reported Aug 9 5:50 AM — Aug 24 5:50 AM, Netanya, Weather by CustomWeather, © 2016

Note: Actual official high and low records may vary slightly from our data, if they occured in-between our weather recording intervals... More about our weather records

Advertising

Netanya Weather History for the Previous 24 Hours

Scroll right to see more
 ConditionsComfort  
Time TempWeatherWind HumidityBarometerVisibility
5:50 AM
Wed, Aug 24
81 °FPassing clouds.6 mph74%29.77 "HgN/A
10:50 PM
Tue, Aug 23
82 °FPassing clouds.6 mph70%29.80 "HgN/A
9:50 PM82 °FPassing clouds.7 mph70%29.80 "HgN/A
8:50 PM82 °FClear.8 mph70%29.80 "Hg10 mi
7:50 PM84 °FSunny.8 mph62%29.80 "Hg10 mi
6:50 PM84 °FSunny.10 mph66%29.80 "Hg10 mi
5:50 PM84 °FPassing clouds.10 mph66%29.80 "HgN/A
4:50 PM86 °FPassing clouds.10 mph62%29.80 "HgN/A
3:50 PM86 °FPassing clouds.9 mph62%29.80 "HgN/A
2:50 PM86 °FPassing clouds.10 mph62%29.83 "HgN/A
1:50 PM86 °FPassing clouds.12 mph66%29.83 "HgN/A
12:50 PM88 °FPassing clouds.10 mph59%29.83 "HgN/A
11:50 AM86 °FPassing clouds.9 mph62%29.83 "HgN/A
10:50 AM86 °FPassing clouds.6 mph62%29.83 "HgN/A
9:50 AM84 °FScattered clouds.5 mph70%29.83 "HgN/A
8:50 AM84 °FPartly sunny.5 mph70%29.83 "HgN/A
7:50 AM82 °FPartly sunny.3 mph70%29.80 "HgN/A
Weather by CustomWeather, © 2016

See weather overviewHow to use our weather pages